Starlink 2069

decayed
NORAD ID: 47359 Int'l Des: 2021-005 Owner: SPXS Country: US Constellation: starlink
LEOCIRCULAR
グループ

Starlink 2069について

説明を読み込み中...

高度履歴

Altitude vs Time

uPlot chart will show altitude changes over time

軌道要素

1 47359U 21005L 25360.17357043 .06534947 11759-4 33347-2 0 9999
2 47359 52.9957 272.3573 0006395 185.1106 174.9867 16.19774772273624
Epoch: Dec 26, 2025 • Age: 1622 hours

現在のステータス

Position data unavailable
打ち上げ日 Jan 20, 2021
運用期間 5.1 years
落下予定日 Dec 27, 2025
タイプ internet

技術仕様

分類 Payload
質量 260.00 kg
乾燥質量 248.00 kg
総質量 260.00 kg
長さ 0.20 m
直径 2.80 m
スパン 9.00 m
形状 Box + pan
製造者 SPXS
バスタイプ Starlink
フェーズステータス Reentered
所有者/国 SPXS/US

大規模コンステレーション

Loading constellations...